Regional Weather Roundup
Issued by NWS Wilmington, NC

Home | Current Version | Previous Version | Text Only | Print | Product List | Glossary On
Versions: 1 2 3 4 5 6 7 8 9 10 11 12 13 14 15 16 17 18 19 20 21 22 23 24 25 26 27
000
ASUS42 KILM 230710
RWRILM
RWRILM
REGIONAL HOURLY WEATHER ROUNDUP
NATIONAL WEATHER SERVICE WILMINGTON NC
300 AM EDT THU OCT 23 2014

NOTE: "FAIR" INDICATES FEW OR NO CLOUDS BELOW 12,000 FEET WITH NO
SIGNIFICANT WEATHER AND/OR OBSTRUCTIONS TO VISIBILITY.

...............WFO WILMINGTON COUNTY WARNING AREA...............

......COASTAL NC AND SC COUNTIES......

CITY           SKY/WX    TMP DP  RH WIND       PRES   REMARKS
WILMINGTON     CLEAR     50  43  77 NW8       30.01S
SOUTHPORT      CLEAR     50  42  75 N8        30.01F
N MYRTLE BEACH CLEAR     50  43  77 NW6       30.03S
MYRTLE BEACH   CLEAR     50  43  76 NW8       30.04F

......INLAND NC AND SC COUNTIES.......

CITY           SKY/WX    TMP DP  RH WIND       PRES   REMARKS
LUMBERTON      CLEAR     48  41  76 NW7       30.04S
ELIZABETHTOWN  CLEAR     50  42  75 NW5       30.03S
WHITEVILLE     CLEAR     50  42  73 CALM      30.03S
FLORENCE       CLEAR     50  40  68 NW7       30.06S
DARLINGTON     CLEAR     48  37  66 N7        30.07S

....................REST OF NORTH CAROLINA......................

.........EASTERN NC.........

CITY           SKY/WX    TMP DP  RH WIND       PRES   REMARKS
CAPE HATTERAS  MOCLDY    56  48  74 NW14G24   29.89F
JACKSONVILLE   CLEAR     50  41  71 W3        30.00F
MOREHEAD CITY  MOCLDY    55  47  74 NW17      29.95F
KENANSVILLE    CLEAR     48  43  82 W3        30.01F
NEW BERN       CLEAR     54  46  74 NW7       29.98F
ELIZABETH CITY CLOUDY    55  45  68 W15       29.90S

.........CENTRAL NC.........

CITY           SKY/WX    TMP DP  RH WIND       PRES   REMARKS
RALEIGH DURHAM CLEAR     44  39  82 SW5       30.02S
ROCKY MOUNT    CLEAR     49  43  80 W5        29.99F
ROANOKE RAPIDS NOT AVBL
FAYETTEVILLE   CLEAR     50  41  71 NW8       30.03S
HOFFMAN        CLEAR     46  41  83 N3        30.07S

.........WESTERN NC.........

CITY           SKY/WX    TMP DP  RH WIND       PRES   REMARKS
CHARLOTTE      CLEAR     44  37  76 NW5       30.08F
GREENSBORO     CLEAR     44  39  82 W5        30.04S
HICKORY        NOT AVBL
BOONE          NOT AVBL
ASHEVILLE      NOT AVBL

.....................REST OF SOUTH CAROLINA.....................

.........EASTERN SC.........

CITY           SKY/WX    TMP DP  RH WIND       PRES   REMARKS
CHARLESTON     CLEAR     52  44  74 NW3       30.06S
BEAUFORT MCAS  CLEAR     52  45  77 N7        30.07S
HILTON HEAD    NOT AVBL

.........CENTRAL SC.........

CITY           SKY/WX    TMP DP  RH WIND       PRES   REMARKS
COLUMBIA       CLEAR     46  40  79 SW5       30.08F
ORANGEBURG     CLEAR     49  41  74 N3        30.08F
SUMTER SHAW    CLEAR     47  42  82 W6        30.06F

.........WESTERN SC.........

CITY           SKY/WX    TMP DP  RH WIND       PRES   REMARKS
GREENVILLE     NOT AVBL
ROCK HILL      CLEAR     41  38  89 CALM      30.08F
ANDERSON       CLEAR     41  39  93 CALM      30.11S
CLEMSON        NOT AVBL
GREENWOOD      CLEAR     40  38  93 CALM      30.11F


...................COASTAL AND OFFSHORE REPORTS..................

................LOCAL PIERS AND NC RESERVE................


STATION/POSITION TIME  SKY/WX   TEMP    WIND        PRES    VSBY
                                AIR SEA DIR/SP/G
                 (UTC)          (F)     (DEG/KT/KT) (MB)    (MI)
JOHNY MRCER PIER 0700            53 73  320/  9/ 14 1015.3F
NC RESRV MASNBRO 0600            53     150/  1     1015.0F
OCEAN CREST PIER 0700            51 71  300/ 11/ 14 1015.2F
SPRINGMAID  PIER 0700            51 71  300/  7/ 10 1017.1F


................COASTAL AND OFFSHORE BUOYS................


STATION/POSITION TIME  SKY/WX   TEMP    WIND        PRES    VSBY
                                AIR SEA DIR/SP/G
                 (UTC)          (F)     (DEG/KT/KT) (MB)    (MI)
DIMNDSHOAL 41025 0700            59     310/ 21/ 27 1011.8F
WVE H/P(F/S)=  6/ 5 WND WVE H/P(F/S)=  5/ 5 SWL H/P/D(F/S/D)=  2/320/11

CAPE LOOKOUT     0600            58     320/ 14/ 18 1014.5F
ONSLOW BAY 41036 0700            62 75  340/ 19/ 25 1014.4S
WVE H/P(F/S)=  4/ 5 WND WVE H/P(F/S)=  3/ 5

5 WRITEBCH 41038 0700            54 72  340/ 17/ 21   N/A
MASONBORO  41110 0700               72                N/A
WVE H/P(F/S)=  2/ 3 WND WVE H/P(F/S)=  2/ 3

WILM HARBR 41108 0700               72                N/A
WVE H/P(F/S)=  3/ 4 WND WVE H/P(F/S)=  3/ 4

27WRITEBCH 41037 0600            59 75  350/ 21/ 23 1015.3R
FRYING PAN 41013 0700            62 74  350/ 17/ 19 1016.2F
WVE H/P(F/S)=  4/ 5 WND WVE H/P(F/S)=  5/ 5

SUNST NRSH 41024 0600            56     330/ 14/ 16 1016.4S
CAPRS NRSH 41029 NOT AVBL
EDISTO     41004 0700            65 78  360/ 16/ 21 1016.1F
WVE H/P(F/S)=  3/ 4 WND WVE H/P(F/S)=  3/ 4 SWL H/P/D(F/S/D)=  2/ 9



..........OFFSHORE BUOYS BEYOND 100 NM OFFSHORE...........
.....IN A TRIANGLE---HAT TO BERMUDA TO BAHAMAS TO HAT.....


STATION/POSITION TIME  SKY/WX   TEMP    WIND        PRES    VSBY
                                AIR SEA DIR/SP/G
                 (UTC)          (F)     (DEG/KT/KT) (MB)    (MI)
150E HAT   41001 NOT AVBL
W BERMUDA  41048 0600            74 79  290/ 17/ 23 1009.3F
WVE H/P(F/S)=  6/ 7 WND WVE H/P(F/S)=  7/ 7 SWL H/P/D(F/S/D)=  2/180/10

ATLANTIC S 41049 0641            80 81  180/ 10/ 12 1014.0F
WVE H/P(F/S)=  3/10 SWL H/P/D(F/S/D)=  3/ 60/10

E BAHAMAS  41046 0649            82 83  150/  8/ 10 1013.2F
WVE H/P(F/S)=  3/ 9 WND WVE H/P(F/S)=  2/ 4 SWL H/P/D(F/S/D)=  3/ 70/ 9

NE BAHAMAS 41047 0637            80 82  240/ 12/ 14 1011.5F
WVE H/P(F/S)=  3/ 9 WND WVE H/P(F/S)=  2/ 4 SWL H/P/D(F/S/D)=  2/ 70/ 9

120E CANVRL41010 0700            73 81   10/ 12/ 16 1014.5S
WVE H/P(F/S)=  4/ 6 WND WVE H/P(F/S)=  3/ 6 SWL H/P/D(F/S/D)=  3/340/ 6


END



USA.gov is the U.S. government's official web portal to all federal, state and local government web resources and services.